Santa Ynez, CA

3:30 AM PDT on September 27, 2016 (GMT -0700)
Santa Ynez

Weather History for KIZA - April, 2013

Change the Weather History Date:

Saturday, April 27, 2013

  Actual Average (KSBA) Record (KSBA)
Temperature  
Mean Temperature 62 °F 59 °F  
Max Temperature 78 °F 68 °F 95 °F (2004)
Min Temperature 46 °F 49 °F 38 °F (1984)
Degree Days  
Heating Degree Days 3 7  
Month to date heating degree days 211  
Since 1 July heating degree days 2108  
Cooling Degree Days 0 0  
Month to date cooling degree days 0  
Year to date cooling degree days 2  
Growing Degree Days 12 (Base 50)    
Moisture  
Dew Point 46 °F    
Average Humidity 70    
Maximum Humidity 100    
Minimum Humidity 30    
Precipitation  
Precipitation 0.00 in 0.02 in 0.80 in (1953)
Month to date precipitation 0.94  
Year to date precipitation 11.58  
Sea Level Pressure  
Sea Level Pressure 30.12 in    
Wind  
Wind Speed 3 mph (West)    
Max Wind Speed 13 mph    
Max Gust Speed -    
Visibility 8 miles    
Events Fog    
T = Trace of Precipitation, MM = Missing Value Source: NWS Daily Summary

Daily Weather History Graph

Daily Weather History Graph

Search for Another Location

Airport or City:

Trip Planner

Search our weather history database for the weather conditions in past years. The results will help you decide how hot, cold, wet, or windy it might be!

Date:

Astronomy

Apr. 27, 2013 Rise Set
Actual Time 6:14 AM PDT 7:42 PM PDT
Civil Twilight 5:47 AM PDT 8:08 PM PDT
Nautical Twilight 5:15 AM PDT 8:40 PM PDT
Astronomical Twilight 4:42 AM PDT 9:14 PM PDT
Moon 10:12 PM PDT 7:41 AM PDT
Length of Visible Light 14h 21m
Length of Day
13h 28m
Waning Gibbous, 95% of the Moon is Illuminated
Apr 27
Waning Gibbous
May 2
Last Quarter
May 9
New
May 17
First Quarter
May 24
Full

Hourly Weather History & Observations

Time (PDT) Temp. Windchill Dew Point Humidity Pressure Visibility Wind Dir Wind Speed Gust Speed Precip Events Conditions
12:15 AM 46.4 °F - 46.4 °F 100% 30.19 in 7.0 mi Calm Calm - N/A   Scattered Clouds
12:35 AM 46.4 °F - 44.6 °F 93% 30.18 in 7.0 mi Calm Calm - N/A   Mostly Cloudy
12:55 AM 46.4 °F - 44.6 °F 93% 30.18 in 7.0 mi Calm Calm - N/A   Mostly Cloudy
1:15 AM 46.4 °F - 44.6 °F 93% 30.17 in 5.0 mi Calm Calm - N/A   Scattered Clouds
1:35 AM 46.4 °F - 44.6 °F 93% 30.17 in 7.0 mi Calm Calm - N/A   Scattered Clouds
1:55 AM 46.4 °F 45.2 °F 44.6 °F 93% 30.17 in 7.0 mi NNW 3.5 mph - N/A   Mostly Cloudy
2:15 AM 46.4 °F - 46.4 °F 100% 30.17 in 7.0 mi Calm Calm - N/A   Overcast
2:35 AM 48.2 °F - 46.4 °F 93% 30.16 in 4.0 mi Calm Calm - N/A   Overcast
2:55 AM 48.2 °F - 46.4 °F 93% 30.16 in 5.0 mi Calm Calm - N/A   Overcast
3:15 AM 48.2 °F - 46.4 °F 93% 30.17 in 4.0 mi Calm Calm - N/A   Overcast
4:35 AM 46.4 °F - 46.4 °F 100% 30.16 in 0.8 mi Calm Calm - N/A   Overcast
4:55 AM 46.4 °F - 44.6 °F 93% 30.16 in 0.5 mi Calm Calm - N/A Fog Fog
5:15 AM 46.4 °F - 46.4 °F 100% 30.15 in 0.8 mi Calm Calm - N/A   Overcast
5:35 AM 46.4 °F - 46.4 °F 100% 30.15 in 1.2 mi Calm Calm - N/A   Overcast
5:55 AM 46.4 °F - 46.4 °F 100% 30.15 in 2.0 mi Calm Calm - N/A   Overcast
6:15 AM 46.4 °F - 46.4 °F 100% 30.15 in 1.0 mi Calm Calm - N/A   Overcast
6:35 AM 46.4 °F - 46.4 °F 100% 30.16 in 1.0 mi Calm Calm - N/A   Overcast
6:55 AM 46.4 °F - 46.4 °F 100% 30.16 in 0.5 mi Calm Calm - N/A Fog Fog
7:15 AM 46.4 °F - 46.4 °F 100% 30.17 in 0.8 mi Calm Calm - N/A   Overcast
7:35 AM 46.4 °F - 46.4 °F 100% 30.17 in 1.0 mi Calm Calm - N/A   Overcast
7:55 AM 46.4 °F - 46.4 °F 100% 30.17 in 1.0 mi Calm Calm - N/A   Overcast
8:15 AM 46.4 °F - 46.4 °F 100% 30.17 in 3.0 mi Calm Calm - N/A   Overcast
8:35 AM 48.2 °F - 46.4 °F 93% 30.17 in 5.0 mi Calm Calm - N/A   Overcast
8:55 AM 50.0 °F - 48.2 °F 94% 30.17 in 7.0 mi Calm Calm - N/A   Overcast
9:15 AM 51.8 °F - 48.2 °F 88% 30.16 in 10.0 mi Calm Calm - N/A   Mostly Cloudy
9:35 AM 53.6 °F - 46.4 °F 77% 30.16 in 10.0 mi Calm Calm - N/A   Clear
9:55 AM 55.4 °F - 46.4 °F 72% 30.16 in 10.0 mi WSW 4.6 mph - N/A   Clear
10:15 AM 59.0 °F - 46.4 °F 63% 30.15 in 10.0 mi West 3.5 mph - N/A   Clear
10:35 AM 62.6 °F - 46.4 °F 55% 30.15 in 10.0 mi SW 4.6 mph - N/A   Clear
10:55 AM 64.4 °F - 46.4 °F 52% 30.15 in 10.0 mi WSW 3.5 mph - N/A   Clear
11:15 AM 68.0 °F - 44.6 °F 43% 30.15 in 10.0 mi West 5.8 mph - N/A   Clear
11:35 AM 71.6 °F - 44.6 °F 38% 30.15 in 10.0 mi West 6.9 mph - N/A   Clear
11:55 AM 73.4 °F - 46.4 °F 38% 30.14 in 10.0 mi West 6.9 mph - N/A   Clear
12:15 PM 77.0 °F - 44.6 °F 32% 30.13 in 10.0 mi West 6.9 mph - N/A   Clear
12:35 PM 78.8 °F - 46.4 °F 32% 30.12 in 10.0 mi WNW 6.9 mph - N/A   Clear
12:55 PM 78.8 °F - 44.6 °F 30% 30.11 in 10.0 mi West 6.9 mph - N/A   Clear
1:15 PM 78.8 °F - 46.4 °F 32% 30.11 in 10.0 mi West 10.4 mph - N/A   Clear
1:35 PM 78.8 °F - 46.4 °F 32% 30.10 in 10.0 mi West 9.2 mph - N/A   Clear
1:55 PM 78.8 °F - 46.4 °F 32% 30.10 in 10.0 mi West 11.5 mph - N/A   Clear
2:15 PM 78.8 °F - 46.4 °F 32% 30.09 in 10.0 mi West 12.7 mph - N/A   Clear
2:35 PM 77.0 °F - 46.4 °F 34% 30.09 in 10.0 mi WNW 11.5 mph - N/A   Clear
2:55 PM 77.0 °F - 46.4 °F 34% 30.08 in 10.0 mi WNW 12.7 mph - N/A   Clear
3:15 PM 77.0 °F - 46.4 °F 34% 30.08 in 10.0 mi West 10.4 mph - N/A   Clear
3:35 PM 77.0 °F - 46.4 °F 34% 30.07 in 10.0 mi WNW 12.7 mph - N/A   Clear
3:55 PM 75.2 °F - 46.4 °F 36% 30.07 in 10.0 mi West 11.5 mph - N/A   Clear
4:15 PM 75.2 °F - 46.4 °F 36% 30.07 in 10.0 mi West 10.4 mph - N/A   Clear
4:35 PM 73.4 °F - 46.4 °F 38% 30.07 in 10.0 mi West 10.4 mph - N/A   Clear
4:55 PM 71.6 °F - 46.4 °F 41% 30.06 in 10.0 mi West 10.4 mph - N/A   Clear
5:15 PM 71.6 °F - 46.4 °F 41% 30.06 in 10.0 mi West 10.4 mph - N/A   Clear
5:35 PM 71.6 °F - 46.4 °F 41% 30.06 in 10.0 mi West 11.5 mph - N/A   Clear
5:55 PM 69.8 °F - 48.2 °F 46% 30.06 in 10.0 mi West 10.4 mph - N/A   Clear
6:15 PM 68.0 °F - 48.2 °F 49% 30.06 in 10.0 mi West 8.1 mph - N/A   Clear
6:35 PM 68.0 °F - 48.2 °F 49% 30.06 in 10.0 mi West 9.2 mph - N/A   Clear
6:55 PM 64.4 °F - 48.2 °F 56% 30.05 in 10.0 mi West 10.4 mph - N/A   Clear
7:15 PM 60.8 °F - 48.2 °F 63% 30.06 in 10.0 mi West 6.9 mph - N/A   Clear
7:35 PM 59.0 °F - 46.4 °F 63% 30.06 in 10.0 mi West 8.1 mph - N/A   Clear
7:55 PM 57.2 °F - 46.4 °F 67% 30.06 in 10.0 mi West 8.1 mph - N/A   Clear
8:15 PM 55.4 °F - 46.4 °F 72% 30.06 in 10.0 mi West 5.8 mph - N/A   Clear
8:35 PM 53.6 °F - 46.4 °F 77% 30.07 in 10.0 mi West 5.8 mph - N/A   Clear
8:55 PM 51.8 °F - 46.4 °F 82% 30.08 in 10.0 mi SW 5.8 mph - N/A   Clear
9:15 PM 51.8 °F - 46.4 °F 82% 30.08 in 10.0 mi WSW 6.9 mph - N/A   Clear
9:35 PM 50.0 °F - 46.4 °F 87% 30.08 in 10.0 mi WSW 5.8 mph - N/A   Clear
9:55 PM 50.0 °F - 46.4 °F 87% 30.09 in 10.0 mi West 5.8 mph - N/A   Clear
10:15 PM 50.0 °F - 46.4 °F 87% 30.08 in 10.0 mi WSW 4.6 mph - N/A   Clear
10:35 PM 50.0 °F - 46.4 °F 87% 30.08 in 7.0 mi WSW 3.5 mph - N/A   Clear
10:55 PM 48.2 °F - 44.6 °F 87% 30.08 in 7.0 mi Calm Calm - N/A   Clear
11:15 PM 46.4 °F - 44.6 °F 93% 30.08 in 7.0 mi Calm Calm - N/A   Clear
11:35 PM 46.4 °F - 44.6 °F 93% 30.07 in 7.0 mi Calm Calm - N/A   Clear
11:55 PM 46.4 °F 45.2 °F 44.6 °F 93% 30.07 in 5.0 mi WSW 3.5 mph - N/A   Scattered Clouds